STARLINK-33733, 63435

Orbit data source: Space-Track

STARLINK-33733, 63435 is a payload satellite owned by SpaceX/Seattle (US) in LEO that was launched on Fri, 04 Apr 2025 UTC via an FALCON 9 launch vehicle from the Air Force Western Test Range (AFWTR). Payload-class satellites include a variety of spacecraft equipped with specific instruments for various scientific and technological missions. These include communications satellites like Starlink; space stations such as the ISS; scientific satellites like the Hubble; Earth observation satellites from companies like Planet Labs, Umbra, and HawkEye 360; GPS; miniature CubeSats for education and research; and military/defense satellites.

Loading next visibility...
Identifier
63435, 2025-069C
Orbit
LEO
Country
Flag of USUS
Related business
Manufacturer
SpaceX/Seattle
Mission
Operational Commercial Communications
Bus & Motor
STARLINK V2MO, Unknown motor
Mass
575 kg wet, ~530 kg dry
Launch date (UTC)
2025-04-04 (8 months ago)
Launch vehicle
FALCON 9
Launch site
Air Force Western Test Range (AFWTR)
Object type
Payload
Rocket body
Debris
Shape & HBR
Box + 2 Pan, 17.7 m
Radar Cross Section
36.964 m², Large (>1 m²)

Expand to show TLE details & history
Last TLE update: 22 hours ago

TLE from 22 hours ago
0 STARLINK-33733
1 63435U 25069C   25348.79128185  .00062164  00000-0  20934-2 0  9995
2 63435  53.1593 177.0215 0002079  87.1932 272.9307 15.30200856 40408
Epoch: 2025-12-14T18:59Z
TLE epoch observation values (Epoch: 2025-12-14T18:59:26.751Z)
Latitude
-0.00001°
Longitude
168.4609°
Altitude
476.04 km
Speed
7.629 km/s
True Right ascension
11h 48m 05s
True Declination
0° 00' 00"
Sunlit
Object was in daylight at epoch
Visualization orbit readout
Latitude
Unknown
Longitude
Unknown
Altitude
Unknown
Speed
Unknown
Apparent Right ascension
Unknown
Apparent Declination
Unknown
Sunlit
N/A
Visualization observer readout
Local Sidereal Time
15:11:08
Azimuth
Unknown
Elevation
Unknown
Doppler factor
Unknown
Orbital elements
Apogee altitude
476.894 km
Perigee altitude
474.044 km
Semi-major axis
6,853.606 km
Eccentricity
0.00021
Inclination
53.1593°
RAAN
177.0215°
Arg. of periapsis
87.1932°
True anomaly
272.90691°
Mean anomaly
272.9307°
Eccentric anomaly
272.9188°
Mean motion
3.82529 °/min
Orbital period
94.11 mins
BSTAR
0.0020934
Loading maneuver chart data...
Computing Atmospheric mass density...
Loading historical data...
Loading historical data...
Loading historical data...
Loading historical data...
Loading historical data...
Loading historical data...
Loading historical data...

Documentation

Showing up to 5 results
|